Погода в Строгановке

Украина / Херсонская область     46°15′16″N   33°52′36″E
темп.,
°C
ветер,
м/с
пор.,
м/с
влажн.,
%
обл.,
%
осадки,
мм/ч
давл.,
гПа
погр.,
м
15 мая, сб
сб1500:00+14юз34812 0.0 101270
03:00+14зюз46830 0.0 1013113
06:00+14юз34860 0.0 101391
09:00+17юз456626 0.0 1014293
12:00+20юз345411 0.0 1014520
15:00+21зюз23500 0.0 1013682
18:00+20ююв33560 0.0 1013324
21:00+17юв12740 0.0 101311
16 мая, вс
вс1600:00+16в2278100 0.0 101316
03:00+15св3475100 0.0 101248
06:00+15св4776100 0.0 1011122
09:00+20св5855100 0.0 1011333
12:00+24всв464490 0.0 1010955
15:00+24в3643100 0.0 10081190
18:00+21ююз236498 0.4 100659
21:00+17з1292100 5.0 100537
17 мая, пн
пн1700:00+17ссз4591100 2.2 100384
03:00+17св598798 8.5 1001156
06:00+16з229469 0.1 100234
09:00+17ююз2391100 0.3 1003219
12:00+20ю697194 0.0 1004629
15:00+16ююз111390100 0.1 1005702
18:00+16юз111490100 0.1 1005724
21:00+15юз91395100 2.3 1007685
18 мая, вт
вт1800:00+15ююз81393100 5.7 1008518
03:00+15ююз7129117 6.5 1008375
06:00+15ю712873 0.0 1008344
09:00+18ю6107539 0.0 1008398
12:00+20юз71172100 1.4 1008587
15:00+20юз1014705 2.1 1008739
18:00+18зюз7106790 0.0 1009540
21:00+16юз6108769 0.0 1011269
19 мая, ср
ср1900:00+15зюз47915 0.0 1011149
03:00+14з228750 0.0 101237
06:00+14юв118474 0.0 101217
09:00+16юв3376100 0.0 1012237
12:00+16ююв6681100 1.9 1013446
15:00+14вюв3492100 8.1 1013256
18:00+14всв2292100 2.1 1013210
21:00+13всв449294 2.6 1014221